CLX6 KATL-KMIA

Flight info

Callsign CLX6
Flight time 1h 18m
Altitude 36000
Route BANNG3 LUCKK HONID FROGZ5
Aircraft B744/H-SDE3FGHIM1M2RWXY/LB1

Departure

Time 2026-05-05 00:00
Airport Hartsfield Jackson Atlanta International Airport (KATL)

Arrival

Time 2026-05-05 01:18
Airport Miami International Airport (KMIA)
Time Latitude Longitude Altitude Speed Heading
2026-05-04 23:27 33.62744 -84.42942 1016 ft 0 kts 269°
2026-05-04 23:47 33.62744 -84.42918 1016 ft 4 kts 271°
2026-05-04 23:47 33.62743 -84.42888 1016 ft 2 kts 270°
2026-05-04 23:47 33.62740 -84.42861 1016 ft 4 kts 314°
2026-05-04 23:48 33.62718 -84.42852 1016 ft 4 kts
2026-05-04 23:48 33.62705 -84.42853 1016 ft 2 kts 360°
2026-05-04 23:52 33.62709 -84.42853 1016 ft 2 kts 359°
2026-05-04 23:52 33.62734 -84.42853 1016 ft 5 kts 359°
2026-05-04 23:53 33.62788 -84.42853 1016 ft 10 kts 359°
2026-05-04 23:53 33.62877 -84.42855 1016 ft 15 kts 358°
2026-05-04 23:53 33.62965 -84.42897 1016 ft 13 kts 330°
2026-05-04 23:53 33.63041 -84.42911 1016 ft 9 kts 21°
2026-05-04 23:54 33.63068 -84.42870 1017 ft 5 kts 77°
2026-05-04 23:54 33.63071 -84.42815 1016 ft 9 kts 87°
2026-05-04 23:54 33.63071 -84.42713 1016 ft 16 kts 90°
2026-05-04 23:54 33.63072 -84.42552 1015 ft 22 kts 90°
2026-05-04 23:55 33.63072 -84.42348 1015 ft 27 kts 90°
2026-05-04 23:55 33.63071 -84.42106 1015 ft 30 kts 90°
2026-05-04 23:55 33.63261 -84.41839 1016 ft 23 kts 12°
2026-05-04 23:56 33.63413 -84.41788 1016 ft 22 kts 13°
2026-05-04 23:56 33.63564 -84.41780 1016 ft 21 kts 352°
2026-05-04 23:56 33.63643 -84.41726 1016 ft 11 kts 69°
2026-05-04 23:56 33.63656 -84.41626 1016 ft 15 kts 88°
2026-05-04 23:57 33.63655 -84.41478 1016 ft 21 kts 90°
2026-05-04 23:57 33.63654 -84.41285 1016 ft 26 kts 90°
2026-05-04 23:57 33.63655 -84.41056 1016 ft 29 kts 89°
2026-05-04 23:57 33.63652 -84.40821 1016 ft 26 kts 101°
2026-05-04 23:58 33.63539 -84.40742 1017 ft 17 kts 182°
2026-05-04 23:58 33.63473 -84.40818 1017 ft 12 kts 259°
2026-05-04 23:58 33.63470 -84.40893 1017 ft 0 kts 270°
2026-05-04 23:58 33.63470 -84.40894 1017 ft 0 kts 270°
2026-05-04 23:59 33.63470 -84.40897 1017 ft 0 kts 271°
2026-05-04 23:59 33.63472 -84.41057 1016 ft 61 kts 270°
2026-05-04 23:59 33.63473 -84.42003 1017 ft 156 kts 269°
2026-05-04 23:59 33.63471 -84.43592 1257 ft 213 kts 269°
2026-05-05 00:00 33.63528 -84.45450 2125 ft 235 kts 270°
2026-05-05 00:00 33.63531 -84.46762 2969 ft 229 kts 265°
2026-05-05 00:00 33.63472 -84.49317 3694 ft 238 kts 267°
2026-05-05 00:00 33.63471 -84.51335 3962 ft 245 kts 267°
2026-05-05 00:01 33.63477 -84.53381 4433 ft 243 kts 268°
2026-05-05 00:01 33.63477 -84.55377 5100 ft 243 kts 267°
2026-05-05 00:01 33.63470 -84.57448 5601 ft 254 kts 267°
2026-05-05 00:01 33.63464 -84.59630 6087 ft 266 kts 268°
2026-05-05 00:02 33.63461 -84.61874 6715 ft 272 kts 268°
2026-05-05 00:02 33.63301 -84.64126 7346 ft 271 kts 250°
2026-05-05 00:02 33.62420 -84.66107 8004 ft 271 kts 227°
2026-05-05 00:02 33.60949 -84.67509 8674 ft 273 kts 212°
2026-05-05 00:03 33.59298 -84.68658 9326 ft 276 kts 210°
2026-05-05 00:03 33.57489 -84.69449 9957 ft 281 kts 189°
2026-05-05 00:03 33.55515 -84.69369 10512 ft 288 kts 174°
2026-05-05 00:03 33.53510 -84.68983 10972 ft 297 kts 173°
2026-05-05 00:04 33.51461 -84.68571 11273 ft 311 kts 173°
2026-05-05 00:04 33.49267 -84.68155 11529 ft 327 kts 173°
2026-05-05 00:04 33.46958 -84.67731 11749 ft 345 kts 173°
2026-05-05 00:04 33.44561 -84.67282 12136 ft 356 kts 173°
2026-05-05 00:05 33.42073 -84.66742 12689 ft 365 kts 166°
2026-05-05 00:05 33.39683 -84.65633 13300 ft 372 kts 158°
2026-05-05 00:05 33.37343 -84.64313 13905 ft 377 kts 156°
2026-05-05 00:05 33.35048 -84.63003 14443 ft 381 kts 157°
2026-05-05 00:06 33.32553 -84.61669 15017 ft 385 kts 159°
2026-05-05 00:06 33.30107 -84.60387 15571 ft 388 kts 158°
2026-05-05 00:06 33.27644 -84.59061 16128 ft 392 kts 158°
2026-05-05 00:06 33.25153 -84.57703 16681 ft 395 kts 158°
2026-05-05 00:07 33.22633 -84.56344 17230 ft 398 kts 159°
2026-05-05 00:07 33.20093 -84.54986 17767 ft 401 kts 159°
2026-05-05 00:07 33.17540 -84.53617 18303 ft 404 kts 159°
2026-05-05 00:07 33.14988 -84.52243 18743 ft 407 kts 159°
2026-05-05 00:08 33.12400 -84.50853 19168 ft 410 kts 159°
2026-05-05 00:08 33.09819 -84.49469 19595 ft 414 kts 159°
2026-05-05 00:08 33.07185 -84.48059 20009 ft 417 kts 159°
2026-05-05 00:08 33.04560 -84.46653 20406 ft 420 kts 159°
2026-05-05 00:09 33.01874 -84.45214 20801 ft 422 kts 159°
2026-05-05 00:09 32.99233 -84.43801 21212 ft 424 kts 159°
2026-05-05 00:09 32.96457 -84.42569 21619 ft 421 kts 171°
2026-05-05 00:09 32.93642 -84.42090 22008 ft 416 kts 182°
2026-05-05 00:10 32.90712 -84.42015 22441 ft 416 kts 183°
2026-05-05 00:10 32.87876 -84.41970 22857 ft 417 kts 184°
2026-05-05 00:10 32.84983 -84.41922 23264 ft 418 kts 184°
2026-05-05 00:10 32.82077 -84.41859 23626 ft 420 kts 183°
2026-05-05 00:11 32.79162 -84.41794 23950 ft 421 kts 184°
2026-05-05 00:11 32.76238 -84.41736 24239 ft 422 kts 184°
2026-05-05 00:11 32.73297 -84.41681 24527 ft 424 kts 184°
2026-05-05 00:11 32.70347 -84.41622 24802 ft 425 kts 184°
2026-05-05 00:12 32.67384 -84.41561 25075 ft 427 kts 184°
2026-05-05 00:12 32.64407 -84.41500 25339 ft 428 kts 184°
2026-05-05 00:12 32.61426 -84.41441 25668 ft 428 kts 184°
2026-05-05 00:12 32.58464 -84.41382 26000 ft 428 kts 184°
2026-05-05 00:13 32.55497 -84.41322 26332 ft 428 kts 184°
2026-05-05 00:13 32.52522 -84.41263 26649 ft 429 kts 184°
2026-05-05 00:13 32.49543 -84.41204 26966 ft 430 kts 184°
2026-05-05 00:13 32.46565 -84.41144 27251 ft 431 kts 185°
2026-05-05 00:14 32.43561 -84.41085 27545 ft 433 kts 185°
2026-05-05 00:14 32.40557 -84.41025 27844 ft 435 kts 185°
2026-05-05 00:14 32.37544 -84.40965 28143 ft 437 kts 185°
2026-05-05 00:14 32.34510 -84.40904 28445 ft 439 kts 185°
2026-05-05 00:15 32.31470 -84.40844 28764 ft 441 kts 185°
2026-05-05 00:15 32.28548 -84.40786 29043 ft 444 kts 185°
2026-05-05 00:15 32.25339 -84.40722 29378 ft 446 kts 185°
2026-05-05 00:15 32.22318 -84.40661 29670 ft 448 kts 185°
2026-05-05 00:16 32.19123 -84.40597 29985 ft 451 kts 186°
2026-05-05 00:16 32.16044 -84.40537 30270 ft 454 kts 186°
2026-05-05 00:16 32.12883 -84.40474 30535 ft 457 kts 186°
2026-05-05 00:16 32.09718 -84.40411 30792 ft 461 kts 186°
2026-05-05 00:17 32.06509 -84.40346 31057 ft 464 kts 187°
2026-05-05 00:17 32.03286 -84.40282 31331 ft 467 kts 187°
2026-05-05 00:17 32.00036 -84.40218 31606 ft 470 kts 187°
2026-05-05 00:17 31.96773 -84.40152 31989 ft 471 kts 187°
2026-05-05 00:18 31.93514 -84.40083 32420 ft 469 kts 188°
2026-05-05 00:18 31.90270 -84.40019 32899 ft 468 kts 188°
2026-05-05 00:18 31.87028 -84.39958 33346 ft 467 kts 188°
2026-05-05 00:18 31.83807 -84.39895 33755 ft 467 kts 188°
2026-05-05 00:19 31.80579 -84.39830 34140 ft 468 kts 189°
2026-05-05 00:19 31.77330 -84.39765 34459 ft 468 kts 189°
2026-05-05 00:19 31.74106 -84.39701 34774 ft 468 kts 188°
2026-05-05 00:19 31.70853 -84.39637 35139 ft 467 kts 189°
2026-05-05 00:20 31.67641 -84.39573 35470 ft 466 kts 189°
2026-05-05 00:20 31.64395 -84.39420 35718 ft 473 kts 180°
2026-05-05 00:20 31.61203 -84.38725 36004 ft 478 kts 175°
2026-05-05 00:21 31.54625 -84.36901 36055 ft 490 kts 176°
2026-05-05 00:21 31.47877 -84.35282 36070 ft 504 kts 176°
2026-05-05 00:22 31.40950 -84.33484 36070 ft 520 kts 175°
2026-05-05 00:22 31.33837 -84.31713 36055 ft 533 kts 175°
2026-05-05 00:23 31.26518 -84.29856 36050 ft 541 kts 175°
2026-05-05 00:23 31.19187 -84.28013 36049 ft 540 kts 175°
2026-05-05 00:24 31.11882 -84.26179 36043 ft 537 kts 175°
2026-05-05 00:24 31.04575 -84.24347 36034 ft 538 kts 175°
2026-05-05 00:25 30.97252 -84.22514 36032 ft 538 kts 175°
2026-05-05 00:25 30.89930 -84.20683 36037 ft 538 kts 175°
2026-05-05 00:26 30.82607 -84.18857 36012 ft 538 kts 175°
2026-05-05 00:26 30.75300 -84.17035 36042 ft 539 kts 175°
2026-05-05 00:27 30.68020 -84.15223 36045 ft 539 kts 175°
2026-05-05 00:27 30.60698 -84.13404 36043 ft 539 kts 175°
2026-05-05 00:28 30.53362 -84.11585 36041 ft 539 kts 175°
2026-05-05 00:28 30.46022 -84.09766 36042 ft 539 kts 175°
2026-05-05 00:29 30.38682 -84.07946 36040 ft 540 kts 173°
2026-05-05 00:29 30.35072 -84.06577 36056 ft 552 kts 161°
2026-05-05 00:29 30.31639 -84.04528 36050 ft 559 kts 153°
2026-05-05 00:30 30.25145 -83.99548 36003 ft 562 kts 150°
2026-05-05 00:30 30.19605 -83.95627 36047 ft 559 kts 157°
2026-05-05 00:31 30.11639 -83.90684 36065 ft 561 kts 154°
2026-05-05 00:31 30.06049 -83.86788 36053 ft 557 kts 155°
2026-05-05 00:32 29.99307 -83.82472 36050 ft 553 kts 155°
2026-05-05 00:32 29.92662 -83.78022 36047 ft 556 kts 155°
2026-05-05 00:33 29.85976 -83.73659 36046 ft 555 kts 156°
2026-05-05 00:33 29.79309 -83.69267 36043 ft 555 kts 155°
2026-05-05 00:34 29.72635 -83.64894 36037 ft 555 kts 155°
2026-05-05 00:34 29.65951 -83.60520 35999 ft 555 kts 155°
2026-05-05 00:35 29.59205 -83.56107 36035 ft 558 kts 155°
2026-05-05 00:35 29.52456 -83.51704 36037 ft 557 kts 155°
2026-05-05 00:35 29.49136 -83.49537 35916 ft 557 kts 155°
2026-05-05 00:36 29.45770 -83.47345 35666 ft 556 kts 155°
2026-05-05 00:36 29.42362 -83.45129 35423 ft 556 kts 155°
2026-05-05 00:36 29.39000 -83.42943 35185 ft 557 kts 155°
2026-05-05 00:36 29.35673 -83.40780 35031 ft 556 kts 155°
2026-05-05 00:37 29.32306 -83.38592 35047 ft 560 kts 155°
2026-05-05 00:37 29.25498 -83.34214 35049 ft 558 kts 160°
2026-05-05 00:38 29.18442 -83.30580 35036 ft 555 kts 162°
2026-05-05 00:38 29.11360 -83.27028 35038 ft 557 kts 161°
2026-05-05 00:39 29.04288 -83.23408 35027 ft 557 kts 162°
2026-05-05 00:39 28.97195 -83.19850 35027 ft 557 kts 161°
2026-05-05 00:40 28.90114 -83.16252 35034 ft 557 kts 162°
2026-05-05 00:40 28.83040 -83.12699 35032 ft 554 kts 161°
2026-05-05 00:41 28.76007 -83.09149 35027 ft 552 kts 161°
2026-05-05 00:41 28.68968 -83.05616 35027 ft 552 kts 161°
2026-05-05 00:42 28.61932 -83.02080 35022 ft 553 kts 161°
2026-05-05 00:42 28.54895 -82.98554 35022 ft 553 kts 161°
2026-05-05 00:43 28.47899 -82.95051 34976 ft 553 kts 161°
2026-05-05 00:43 28.40817 -82.91512 35022 ft 552 kts 161°
2026-05-05 00:44 28.33939 -82.88079 35019 ft 553 kts 161°
2026-05-05 00:44 28.26842 -82.84542 35016 ft 553 kts 161°
2026-05-05 00:45 28.19797 -82.81036 35016 ft 553 kts 161°
2026-05-05 00:45 28.12810 -82.77564 35031 ft 553 kts 161°
2026-05-05 00:46 28.05799 -82.74083 35045 ft 550 kts 161°
2026-05-05 00:46 27.98712 -82.70994 35054 ft 539 kts 173°
2026-05-05 00:47 27.91436 -82.69658 35027 ft 531 kts 181°
2026-05-05 00:47 27.84101 -82.68516 35019 ft 536 kts 175°
2026-05-05 00:48 27.76774 -82.66855 35004 ft 535 kts 177°
2026-05-05 00:48 27.69439 -82.65552 35004 ft 535 kts 176°
2026-05-05 00:49 27.62104 -82.64025 35007 ft 536 kts 176°
2026-05-05 00:49 27.54762 -82.62632 35004 ft 535 kts 177°
2026-05-05 00:50 27.47462 -82.60651 35000 ft 541 kts 171°
2026-05-05 00:50 27.40186 -82.58471 35011 ft 540 kts 172°
2026-05-05 00:51 27.32894 -82.56365 35015 ft 541 kts 171°
2026-05-05 00:51 27.25616 -82.54207 35007 ft 541 kts 172°
2026-05-05 00:52 27.18299 -82.52082 35002 ft 543 kts 171°
2026-05-05 00:52 27.10992 -82.49935 35016 ft 543 kts 171°
2026-05-05 00:53 27.03677 -82.47807 35015 ft 543 kts 171°
2026-05-05 00:53 26.96420 -82.45687 34988 ft 543 kts 172°
2026-05-05 00:54 26.89173 -82.42985 35033 ft 555 kts 156°
2026-05-05 00:54 26.85939 -82.40685 35031 ft 562 kts 144°
2026-05-05 00:54 26.83024 -82.37757 35028 ft 565 kts 136°
2026-05-05 00:55 26.77720 -82.31242 34688 ft 565 kts 134°
2026-05-05 00:55 26.75009 -82.28078 34351 ft 562 kts 140°
2026-05-05 00:55 26.72064 -82.25218 34024 ft 559 kts 144°
2026-05-05 00:55 26.69002 -82.22553 33644 ft 558 kts 146°
2026-05-05 00:56 26.65935 -82.19907 33230 ft 557 kts 143°
2026-05-05 00:56 26.63005 -82.17067 32794 ft 558 kts 139°
2026-05-05 00:56 26.60145 -82.14142 32401 ft 557 kts 140°
2026-05-05 00:56 26.57206 -82.11323 32026 ft 555 kts 143°
2026-05-05 00:57 26.54223 -82.08603 31656 ft 553 kts 143°
2026-05-05 00:57 26.51344 -82.05756 31283 ft 551 kts 139°
2026-05-05 00:57 26.48538 -82.02854 30907 ft 548 kts 140°
2026-05-05 00:57 26.45703 -82.00027 30539 ft 545 kts 141°
2026-05-05 00:58 26.42871 -81.97228 30081 ft 543 kts 140°
2026-05-05 00:58 26.40063 -81.94396 29324 ft 544 kts 140°
2026-05-05 00:58 26.37278 -81.91558 28606 ft 538 kts 140°
2026-05-05 00:58 26.34522 -81.88786 27890 ft 529 kts 141°
2026-05-05 00:59 26.31802 -81.86077 27201 ft 519 kts 141°
2026-05-05 00:59 26.29140 -81.83412 26522 ft 509 kts 141°
2026-05-05 00:59 26.26545 -81.80797 25844 ft 497 kts 141°
2026-05-05 00:59 26.24066 -81.78240 25217 ft 488 kts 135°
2026-05-05 01:00 26.21991 -81.75229 24589 ft 480 kts 121°
2026-05-05 01:00 26.20539 -81.71975 23970 ft 472 kts 113°
2026-05-05 01:00 26.19383 -81.68590 23309 ft 463 kts 110°
2026-05-05 01:00 26.18287 -81.65267 22708 ft 452 kts 114°
2026-05-05 01:01 26.16990 -81.62117 22139 ft 446 kts 120°
2026-05-05 01:01 26.15519 -81.59072 21541 ft 448 kts 121°
2026-05-05 01:01 26.14083 -81.56002 20952 ft 444 kts 118°
2026-05-05 01:01 26.12796 -81.52909 20372 ft 437 kts 117°
2026-05-05 01:02 26.11510 -81.49820 19788 ft 430 kts 118°
2026-05-05 01:02 26.10196 -81.46860 19222 ft 424 kts 120°
2026-05-05 01:02 26.08887 -81.43946 18672 ft 418 kts 119°
2026-05-05 01:02 26.07644 -81.41094 18103 ft 413 kts 118°
2026-05-05 01:03 26.06414 -81.38241 17528 ft 406 kts 118°
2026-05-05 01:03 26.05196 -81.35438 17011 ft 399 kts 119°
2026-05-05 01:03 26.03993 -81.32690 16478 ft 392 kts 118°
2026-05-05 01:03 26.02807 -81.29974 15973 ft 387 kts 118°
2026-05-05 01:04 26.01641 -81.27296 15456 ft 382 kts 118°
2026-05-05 01:04 25.99305 -81.21947 14463 ft 387 kts 118°
2026-05-05 01:04 25.98133 -81.19263 13941 ft 385 kts 118°
2026-05-05 01:05 25.96966 -81.16594 13395 ft 383 kts 118°
2026-05-05 01:05 25.95810 -81.13950 12895 ft 379 kts 118°
2026-05-05 01:05 25.94684 -81.11376 12362 ft 361 kts 118°
2026-05-05 01:05 25.93613 -81.08927 11910 ft 344 kts 118°
2026-05-05 01:06 25.92590 -81.06594 11459 ft 329 kts 119°
2026-05-05 01:06 25.91610 -81.04362 11035 ft 316 kts 119°
2026-05-05 01:06 25.90759 -81.02129 10658 ft 316 kts 115°
2026-05-05 01:06 25.89878 -80.99880 10248 ft 318 kts 117°
2026-05-05 01:07 25.88984 -80.97642 9826 ft 316 kts 116°
2026-05-05 01:07 25.88134 -80.95422 9361 ft 308 kts 115°
2026-05-05 01:07 25.87321 -80.93267 8956 ft 298 kts 115°
2026-05-05 01:07 25.86517 -80.91168 8712 ft 293 kts 115°
2026-05-05 01:08 25.85720 -80.89105 8452 ft 288 kts 115°
2026-05-05 01:08 25.84937 -80.87071 8198 ft 285 kts 115°
2026-05-05 01:08 25.84161 -80.85051 7943 ft 285 kts 115°
2026-05-05 01:08 25.83379 -80.83020 7635 ft 286 kts 115°
2026-05-05 01:09 25.82601 -80.80998 7352 ft 283 kts 115°
2026-05-05 01:09 25.81829 -80.78993 7067 ft 281 kts 115°
2026-05-05 01:09 25.81062 -80.77002 6789 ft 279 kts 115°
2026-05-05 01:09 25.80302 -80.75031 6497 ft 277 kts 114°
2026-05-05 01:10 25.79547 -80.73072 6209 ft 275 kts 114°
2026-05-05 01:10 25.78797 -80.71128 5924 ft 273 kts 114°
2026-05-05 01:10 25.78046 -80.69182 5653 ft 275 kts 114°
2026-05-05 01:10 25.77309 -80.67240 5352 ft 270 kts 109°
2026-05-05 01:11 25.77066 -80.65220 5101 ft 260 kts 89°
2026-05-05 01:11 25.77184 -80.63286 4838 ft 242 kts 85°
2026-05-05 01:11 25.77328 -80.61489 4595 ft 230 kts 86°
2026-05-05 01:11 25.77436 -80.59729 4377 ft 227 kts 88°
2026-05-05 01:12 25.77507 -80.58036 4149 ft 211 kts 88°
2026-05-05 01:12 25.77572 -80.56488 3898 ft 191 kts 88°
2026-05-05 01:12 25.77632 -80.55050 3756 ft 186 kts 88°
2026-05-05 01:12 25.77689 -80.53645 3623 ft 180 kts 88°
2026-05-05 01:13 25.77745 -80.52246 3466 ft 180 kts 86°
2026-05-05 01:13 25.77803 -80.50871 3310 ft 183 kts 87°
2026-05-05 01:13 25.77860 -80.49491 3161 ft 179 kts 87°
2026-05-05 01:13 25.77915 -80.48106 2940 ft 177 kts 86°
2026-05-05 01:14 25.77972 -80.46751 2722 ft 177 kts 86°
2026-05-05 01:14 25.78027 -80.45423 2486 ft 165 kts 86°
2026-05-05 01:14 25.78079 -80.44170 2269 ft 160 kts 86°
2026-05-05 01:14 25.78127 -80.42985 2077 ft 149 kts 86°
2026-05-05 01:15 25.78177 -80.41853 1848 ft 146 kts 87°
2026-05-05 01:15 25.78209 -80.41101 1719 ft 148 kts 87°
2026-05-05 01:15 25.78256 -80.39962 1564 ft 148 kts 86°
2026-05-05 01:15 25.78304 -80.38814 1377 ft 151 kts 86°
2026-05-05 01:16 25.78350 -80.37651 1173 ft 150 kts 86°
2026-05-05 01:16 25.78406 -80.36503 985 ft 148 kts 87°
2026-05-05 01:16 25.78454 -80.35363 790 ft 148 kts 85°
2026-05-05 01:16 25.78503 -80.34213 586 ft 149 kts 88°
2026-05-05 01:17 25.78544 -80.33074 405 ft 148 kts 86°
2026-05-05 01:17 25.78608 -80.31929 179 ft 147 kts 85°
2026-05-05 01:17 25.78644 -80.30813 36 ft 138 kts 85°
2026-05-05 01:17 25.78678 -80.29899 27 ft 97 kts 87°
2026-05-05 01:18 25.78707 -80.29281 29 ft 69 kts 88°
2026-05-05 01:18 25.78733 -80.28826 28 ft 47 kts 77°
2026-05-05 01:18 25.78886 -80.28620 28 ft 23 kts 41°
2026-05-05 01:18 25.78936 -80.28603 30 ft 1 kts 322°
2026-05-05 01:19 25.78941 -80.28617 28 ft 6 kts 287°
2026-05-05 01:19 25.78951 -80.28740 23 ft 23 kts 269°
2026-05-05 01:19 25.79003 -80.28864 27 ft 16 kts 333°
2026-05-05 01:19 25.79094 -80.28950 24 ft 19 kts 305°
2026-05-05 01:20 25.79160 -80.29075 25 ft 17 kts 294°
2026-05-05 01:20 25.79150 -80.29157 28 ft 7 kts 253°
2026-05-05 01:20 25.79139 -80.29197 26 ft 0 kts 253°